Time,TemperatureF,DewpointF,PressureIn,WindDirection,WindDirectionDegrees,WindSpeedMPH,WindSpeedGustMPH,Humidity,HourlyPrecipIn,Conditions,Clouds,dailyrainin,SoftwareType,DateUTC
2013-07-14 00:00:00,69.3,65.3,30.28,ENE,68,0.0,5.0,87,0.00,,---,0.00,VWS V14.01,2013-07-14 04:00:00,
2013-07-14 00:30:00,69.4,65.4,30.28,ENE,68,0.0,0.0,87,0.00,,---,0.00,VWS V14.01,2013-07-14 04:30:00,
2013-07-14 01:00:00,69.4,65.4,30.28,NE,45,1.0,6.0,87,0.00,,---,0.00,VWS V14.01,2013-07-14 05:00:00,
2013-07-14 01:30:00,69.4,65.4,30.28,ENE,68,1.0,5.0,87,0.00,,---,0.00,VWS V14.01,2013-07-14 05:30:00,
2013-07-14 02:00:00,69.5,65.5,30.28,ENE,68,0.0,3.0,87,0.00,,---,0.00,VWS V14.01,2013-07-14 06:00:00,
2013-07-14 02:30:00,69.4,65.4,30.28,ENE,68,0.0,1.0,87,0.00,,---,0.00,VWS V14.01,2013-07-14 06:30:00,
2013-07-14 03:00:00,69.6,65.6,30.29,ESE,112,0.0,2.0,87,0.00,,---,0.00,VWS V14.01,2013-07-14 07:00:00,
2013-07-14 03:30:00,70.0,66.0,30.29,ESE,112,0.0,0.0,87,0.00,,---,0.00,VWS V14.01,2013-07-14 07:30:00,
2013-07-14 04:00:00,69.8,65.8,30.29,ESE,112,0.0,0.0,87,0.00,,---,0.00,VWS V14.01,2013-07-14 08:00:00,
2013-07-14 04:30:00,70.2,66.2,30.29,ESE,112,0.0,0.0,87,0.00,,---,0.00,VWS V14.01,2013-07-14 08:30:00,
2013-07-14 05:00:00,71.1,67.0,30.29,SSW,202,0.0,4.0,87,0.00,,---,0.00,VWS V14.01,2013-07-14 09:00:00,
2013-07-14 05:30:00,71.9,67.8,30.28,SW,225,6.0,9.0,87,0.00,,---,0.00,VWS V14.01,2013-07-14 09:30:00,
2013-07-14 06:00:00,72.5,68.4,30.27,SW,225,6.0,8.0,87,0.00,,---,0.00,VWS V14.01,2013-07-14 10:00:00,
2013-07-14 06:30:00,74.8,70.7,30.26,SW,225,2.0,6.0,87,0.00,,---,0.00,VWS V14.01,2013-07-14 10:30:00,
2013-07-14 07:00:00,78.5,72.6,30.26,SW,225,0.0,1.0,82,0.00,,---,0.00,VWS V14.01,2013-07-14 11:00:00,
2013-07-14 07:30:00,80.0,72.2,30.26,SW,225,0.0,0.0,77,0.00,,---,0.00,VWS V14.01,2013-07-14 11:30:00,
2013-07-14 08:00:00,81.5,70.8,30.26,NNW,338,4.0,9.0,70,0.00,,---,0.00,VWS V14.01,2013-07-14 12:00:00,
2013-07-14 08:30:00,81.6,71.3,30.25,NNW,338,5.0,9.0,71,0.00,,---,0.00,VWS V14.01,2013-07-14 12:30:00,
2013-07-14 09:00:00,82.1,70.5,30.25,NW,315,4.0,9.0,68,0.00,,---,0.00,VWS V14.01,2013-07-14 13:00:00,
2013-07-14 09:30:00,83.4,70.9,30.24,NW,315,4.0,10.0,66,0.00,,---,0.00,VWS V14.01,2013-07-14 13:30:00,
2013-07-14 10:00:00,84.1,70.6,30.24,West,270,3.0,8.0,64,0.00,,---,0.00,VWS V14.01,2013-07-14 14:00:00,
2013-07-14 10:30:00,83.0,73.9,30.23,West,270,1.0,8.0,74,0.00,,---,0.00,VWS V14.01,2013-07-14 14:30:00,
2013-07-14 11:00:00,81.3,73.4,30.22,ESE,112,0.0,7.0,77,0.00,,---,0.00,VWS V14.01,2013-07-14 15:00:00,
2013-07-14 11:30:00,81.5,73.2,30.22,East,90,0.0,5.0,76,0.00,,---,0.00,VWS V14.01,2013-07-14 15:30:00,
2013-07-14 12:00:00,81.2,73.7,30.21,East,90,0.0,7.0,78,0.00,,---,0.00,VWS V14.01,2013-07-14 16:00:00,
2013-07-14 12:30:00,81.7,74.2,30.21,East,90,3.0,13.0,78,0.00,,---,0.00,VWS V14.01,2013-07-14 16:30:00,
2013-07-14 13:00:00,80.5,73.0,30.21,East,90,2.0,11.0,78,0.00,,---,0.00,VWS V14.01,2013-07-14 17:00:00,
2013-07-14 13:30:00,78.8,72.5,30.20,ESE,112,0.0,8.0,81,0.00,,---,0.00,VWS V14.01,2013-07-14 17:30:00,
2013-07-14 14:00:00,82.0,74.1,30.20,SE,135,0.0,8.0,77,0.00,,---,0.00,VWS V14.01,2013-07-14 18:00:00,
2013-07-14 14:30:00,80.9,73.4,30.20,SE,135,0.0,4.0,78,0.00,,---,0.00,VWS V14.01,2013-07-14 18:30:00,
2013-07-14 15:00:00,81.6,73.7,30.20,ESE,112,0.0,3.0,77,0.00,,---,0.00,VWS V14.01,2013-07-14 19:00:00,
2013-07-14 15:30:00,83.0,74.3,30.20,ESE,112,0.0,2.0,75,0.00,,---,0.00,VWS V14.01,2013-07-14 19:30:00,
2013-07-14 16:00:00,82.8,74.1,30.20,SE,135,0.0,4.0,75,0.00,,---,0.00,VWS V14.01,2013-07-14 20:00:00,
2013-07-14 16:30:00,81.6,73.7,30.20,ESE,112,0.0,2.0,77,0.00,,---,0.00,VWS V14.01,2013-07-14 20:30:00,
2013-07-14 17:00:00,79.1,72.8,30.20,ESE,112,0.0,0.0,81,0.00,,---,0.00,VWS V14.01,2013-07-14 21:00:00,
2013-07-14 17:30:00,77.5,71.9,30.20,ESE,112,0.0,0.0,83,0.00,,---,0.00,VWS V14.01,2013-07-14 21:30:00,
2013-07-14 18:00:00,76.5,71.7,30.20,ESE,112,0.0,0.0,85,0.00,,---,0.00,VWS V14.01,2013-07-14 22:00:00,
2013-07-14 18:30:00,76.4,71.6,30.20,ESE,112,0.0,0.0,85,0.00,,---,0.00,VWS V14.01,2013-07-14 22:30:00,
2013-07-14 19:00:00,76.0,71.2,30.20,ESE,112,0.0,0.0,85,0.00,,---,0.00,VWS V14.01,2013-07-14 23:00:00,
2013-07-14 19:30:00,75.9,71.4,30.20,ESE,112,0.0,0.0,86,0.00,,---,0.00,VWS V14.01,2013-07-14 23:30:00,
2013-07-14 20:00:00,76.7,72.2,30.19,ESE,112,0.0,0.0,86,0.00,,---,0.00,VWS V14.01,2013-07-15 00:00:00,
2013-07-14 20:30:00,77.3,72.8,30.19,ESE,112,0.0,0.0,86,0.00,,---,0.00,VWS V14.01,2013-07-15 00:30:00,
2013-07-14 21:00:00,77.2,72.7,30.19,ESE,112,0.0,0.0,86,0.00,,---,0.00,VWS V14.01,2013-07-15 01:00:00,
2013-07-14 21:30:00,76.4,71.9,30.18,ESE,112,0.0,0.0,86,0.00,,---,0.00,VWS V14.01,2013-07-15 01:30:00,
2013-07-14 22:00:00,75.7,71.2,30.18,ESE,112,0.0,0.0,86,0.00,,---,0.00,VWS V14.01,2013-07-15 02:00:00,
2013-07-14 22:30:00,75.5,71.0,30.17,ESE,112,0.0,0.0,86,0.00,,---,0.00,VWS V14.01,2013-07-15 02:30:00,
2013-07-14 23:00:00,75.4,70.9,30.17,ESE,112,0.0,0.0,86,0.00,,---,0.00,VWS V14.01,2013-07-15 03:00:00,
2013-07-14 23:30:00,75.3,70.8,30.17,ESE,112,0.0,0.0,86,0.00,,---,0.00,VWS V14.01,2013-07-15 03:30:00,